Back to catalog

STARLINK-4323

AliveCommunicationsSSO
NORAD 53069·PAYLOAD·🇺🇸 United States

Launched Jul 11, 2022 from Vandenberg Space Force Base

Loading…

Next Passes (next 24 hours)

TLE

FreshSource: CelesTrak SupGP

Epoch: Sep 14, 2026, 13:30 UTC

1 53069C 22077AC  26257.56298611 -.00044830  00000+0 -13918-2 0  2572
2 53069  97.2851  72.4919 0001576  83.5191 346.5181 15.33458124    10

Track STARLINK-4323 in real time with AllMySat

Download on the App Store